When you browse on this site, cookies collect data to enhance your experience and personalize the content and advertising you see.
Visit our Privacy Policy to learn more. By continuing to use the site, you agree to this use of cookies and data.

Meteo pe oră la Dziekonie

Astăzi, 26 Septembrie, Sâmbătă

Timp Temperatura Precipitaţii Vânt Presiune Umiditate
00:00 +19°C° 0 mm 4 m/s 737 mmHg 72%
01:00 +17°C° 0 mm 5 m/s 736 mmHg 72%
02:00 +19°C° 0 mm 5 m/s 736 mmHg 67%
03:00 +17°C° 0 mm 5 m/s 736 mmHg 69%
04:00 +17°C° 0 mm 5 m/s 736 mmHg 71%
05:00 +16°C° 0 mm 5 m/s 736 mmHg 73%
06:00 +17°C° 0 mm 6 m/s 736 mmHg 73%
07:00 +17°C° 0 mm 6 m/s 735 mmHg 73%
08:00 +17°C° 0 mm 6 m/s 735 mmHg 74%
09:00 +18°C° 0 mm 7 m/s 736 mmHg 70%
10:00 +21°C° 0 mm 8 m/s 736 mmHg 65%
11:00 +22°C° 0 mm 8 m/s 736 mmHg 61%
12:00 +23°C° 0 mm 9 m/s 736 mmHg 56%
13:00 +24°C° 0 mm 9 m/s 736 mmHg 52%
14:00 +27°C° 0 mm 8 m/s 735 mmHg 48%
15:00 +26°C° 0 mm 7 m/s 736 mmHg 51%
16:00 +24°C° 0 mm 7 m/s 736 mmHg 54%
17:00 +24°C° 0 mm 6 m/s 736 mmHg 56%
18:00 +23°C° 0 mm 6 m/s 736 mmHg 57%
19:00 +22°C° 0 mm 7 m/s 736 mmHg 58%
20:00 +22°C° 0 mm 7 m/s 736 mmHg 58%
21:00 +21°C° 0 mm 7 m/s 736 mmHg 59%
22:00 +21°C° 0 mm 7 m/s 737 mmHg 60%
23:00 +21°C° 0 mm 7 m/s 737 mmHg 61%

Mâine, 27 Septembrie, Duminică

Timp Temperatura Precipitaţii Vânt Presiune Umiditate
00:00 +20°C° 0 mm 7 m/s 737 mmHg 60%
01:00 +20°C° 0 mm 7 m/s 737 mmHg 60%
02:00 +20°C° 0 mm 7 m/s 737 mmHg 59%
03:00 +18°C° 0 mm 7 m/s 736 mmHg 59%
04:00 +18°C° 0 mm 7 m/s 736 mmHg 59%
05:00 +18°C° 0 mm 7 m/s 736 mmHg 59%
06:00 +18°C° 0 mm 8 m/s 736 mmHg 58%
07:00 +18°C° 0 mm 8 m/s 736 mmHg 57%
08:00 +18°C° 0 mm 8 m/s 736 mmHg 56%
09:00 +17°C° 0 mm 8 m/s 736 mmHg 59%
10:00 +17°C° 0 mm 8 m/s 736 mmHg 62%
11:00 +16°C° 0 mm 8 m/s 736 mmHg 65%
12:00 +17°C° 0 mm 8 m/s 737 mmHg 63%
13:00 +18°C° 0 mm 8 m/s 737 mmHg 61%
14:00 +19°C° 0 mm 9 m/s 737 mmHg 59%
15:00 +17°C° 0.7 mm 8 m/s 738 mmHg 67%
16:00 +16°C° 0.7 mm 7 m/s 739 mmHg 75%
17:00 +14°C° 0.7 mm 7 m/s 739 mmHg 83%
18:00 +13°C° 0.2 mm 6 m/s 740 mmHg 84%
19:00 +11°C° 0.2 mm 6 m/s 740 mmHg 84%
20:00 +10°C° 0.2 mm 5 m/s 741 mmHg 85%
21:00 +10°C° 0 mm 5 m/s 742 mmHg 84%
22:00 +10°C° 0 mm 5 m/s 743 mmHg 84%
23:00 +10°C° 0 mm 5 m/s 744 mmHg 83%

Poimâine, 28 Septembrie, Luni

Timp Temperatura Precipitaţii Vânt Presiune Umiditate
00:00 +10°C° 0 mm 5 m/s 744 mmHg 83%
01:00 +10°C° 0 mm 5 m/s 744 mmHg 83%
02:00 +11°C° 0 mm 4 m/s 745 mmHg 84%
03:00 +10°C° 0 mm 4 m/s 745 mmHg 85%
04:00 +8°C° 0 mm 4 m/s 745 mmHg 87%
05:00 +8°C° 0 mm 4 m/s 746 mmHg 89%
06:00 +8°C° 0 mm 4 m/s 746 mmHg 87%
07:00 +8°C° 0 mm 4 m/s 746 mmHg 84%
08:00 +9°C° 0 mm 5 m/s 747 mmHg 81%
09:00 +10°C° 0 mm 5 m/s 747 mmHg 74%
10:00 +13°C° 0 mm 5 m/s 747 mmHg 66%
11:00 +15°C° 0 mm 5 m/s 748 mmHg 58%
12:00 +16°C° 0 mm 5 m/s 748 mmHg 55%
13:00 +17°C° 0 mm 5 m/s 748 mmHg 51%
14:00 +19°C° 0 mm 4 m/s 748 mmHg 48%
15:00 +18°C° 0 mm 4 m/s 748 mmHg 50%
16:00 +18°C° 0 mm 3 m/s 748 mmHg 52%
17:00 +17°C° 0 mm 2 m/s 747 mmHg 54%
18:00 +16°C° 0 mm 2 m/s 747 mmHg 58%
19:00 +14°C° 0 mm 2 m/s 748 mmHg 62%
20:00 +12°C° 0 mm 3 m/s 748 mmHg 65%
21:00 +12°C° 0 mm 3 m/s 748 mmHg 69%
22:00 +11°C° 0 mm 3 m/s 748 mmHg 73%
23:00 +11°C° 0 mm 3 m/s 748 mmHg 76%

29 Septembrie, Marţi

Timp Temperatura Precipitaţii Vânt Presiune Umiditate
00:00 +11°C° 0 mm 3 m/s 747 mmHg 80%
01:00 +10°C° 0 mm 2 m/s 747 mmHg 83%
02:00 +10°C° 0 mm 2 m/s 747 mmHg 86%
03:00 +10°C° 0 mm 2 m/s 747 mmHg 87%
04:00 +10°C° 0 mm 3 m/s 747 mmHg 87%
05:00 +10°C° 0 mm 3 m/s 746 mmHg 88%
06:00 +11°C° 0 mm 3 m/s 746 mmHg 86%
07:00 +12°C° 0 mm 3 m/s 746 mmHg 83%
08:00 +12°C° 0 mm 3 m/s 747 mmHg 81%
09:00 +13°C° 0 mm 3 m/s 747 mmHg 77%
10:00 +14°C° 0 mm 3 m/s 747 mmHg 72%
11:00 +16°C° 0 mm 3 m/s 747 mmHg 68%
12:00 +17°C° 0 mm 3 m/s 747 mmHg 67%
13:00 +18°C° 0 mm 2 m/s 747 mmHg 65%
14:00 +18°C° 0 mm 2 m/s 747 mmHg 64%
15:00 +18°C° 0 mm 2 m/s 747 mmHg 67%
16:00 +18°C° 0 mm 1 m/s 747 mmHg 70%
17:00 +18°C° 0 mm 1 m/s 746 mmHg 74%
18:00 +16°C° 0 mm 1 m/s 747 mmHg 76%
19:00 +16°C° 0 mm 1 m/s 747 mmHg 77%
20:00 +15°C° 0 mm 2 m/s 747 mmHg 79%
21:00 +15°C° 0 mm 2 m/s 747 mmHg 79%
22:00 +15°C° 0 mm 2 m/s 747 mmHg 79%
23:00 +15°C° 0 mm 2 m/s 747 mmHg 79%

30 Septembrie, Miercuri

Timp Temperatura Precipitaţii Vânt Presiune Umiditate
00:00 +14°C° 0 mm 2 m/s 747 mmHg 81%
01:00 +13°C° 0 mm 2 m/s 746 mmHg 83%
02:00 +13°C° 0 mm 2 m/s 746 mmHg 85%
03:00 +12°C° 0 mm 2 m/s 746 mmHg 88%
04:00 +12°C° 0 mm 2 m/s 746 mmHg 90%
05:00 +10°C° 0 mm 3 m/s 746 mmHg 92%
06:00 +11°C° 0 mm 3 m/s 746 mmHg 91%
07:00 +11°C° 0 mm 3 m/s 746 mmHg 90%
08:00 +12°C° 0 mm 4 m/s 745 mmHg 90%
09:00 +14°C° 0 mm 4 m/s 745 mmHg 82%
10:00 +15°C° 0 mm 4 m/s 745 mmHg 74%
11:00 +18°C° 0 mm 4 m/s 745 mmHg 67%
12:00 +19°C° 0 mm 5 m/s 745 mmHg 64%
13:00 +19°C° 0 mm 5 m/s 744 mmHg 61%
14:00 +20°C° 0 mm 5 m/s 744 mmHg 58%
15:00 +20°C° 0 mm 5 m/s 744 mmHg 60%
16:00 +19°C° 0 mm 4 m/s 744 mmHg 62%
17:00 +18°C° 0 mm 4 m/s 743 mmHg 64%
18:00 +18°C° 0 mm 4 m/s 743 mmHg 65%
19:00 +17°C° 0 mm 4 m/s 744 mmHg 66%
20:00 +15°C° 0 mm 4 m/s 744 mmHg 67%
21:00 +14°C° 0 mm 3 m/s 744 mmHg 68%
22:00 +14°C° 0 mm 3 m/s 743 mmHg 68%
23:00 +13°C° 0 mm 3 m/s 743 mmHg 68%

1 Octombrie, Joi

Timp Temperatura Precipitaţii Vânt Presiune Umiditate
00:00 +13°C° 0 mm 3 m/s 743 mmHg 67%
01:00 +13°C° 0 mm 3 m/s 743 mmHg 67%
02:00 +13°C° 0 mm 4 m/s 743 mmHg 67%
03:00 +13°C° 0 mm 3 m/s 743 mmHg 67%
04:00 +12°C° 0 mm 3 m/s 743 mmHg 68%
05:00 +12°C° 0 mm 3 m/s 743 mmHg 68%
06:00 +12°C° 0.1 mm 4 m/s 742 mmHg 68%
07:00 +12°C° 0.1 mm 4 m/s 742 mmHg 68%
08:00 +12°C° 0.1 mm 4 m/s 742 mmHg 67%
09:00 +12°C° 0 mm 4 m/s 742 mmHg 70%
10:00 +13°C° 0 mm 4 m/s 742 mmHg 73%
11:00 +13°C° 0 mm 4 m/s 742 mmHg 75%
12:00 +13°C° 0 mm 4 m/s 742 mmHg 74%
13:00 +13°C° 0 mm 4 m/s 742 mmHg 73%
14:00 +14°C° 0 mm 4 m/s 742 mmHg 72%
15:00 +13°C° 0.5 mm 5 m/s 741 mmHg 77%
16:00 +12°C° 0.5 mm 5 m/s 741 mmHg 83%
17:00 +10°C° 0.5 mm 5 m/s 741 mmHg 88%
18:00 +10°C° 0.3 mm 5 m/s 741 mmHg 88%
19:00 +10°C° 0.3 mm 5 m/s 741 mmHg 89%
20:00 +9°C° 0.3 mm 5 m/s 741 mmHg 89%
21:00 +11°C° 0.1 mm 4 m/s 741 mmHg 90%
22:00 +11°C° 0.1 mm 4 m/s 741 mmHg 91%
23:00 +11°C° 0.1 mm 4 m/s 741 mmHg 92%
Arată mai mult